Regional Weather Roundup
Issued by NWS

Home | Current Version | Previous Version | Text Only | Print | Product List | Glossary On
Versions: 1 2 3 4 5 6 7 8 9 10 11 12 13 14 15 16 17 18 19 20 21 22 23 24 25 26 27 28 29 30 31 32 33 34 35 36 37 38 39 40 41 42 43 44 45 46 47 48 49 50
000
ASUS45 KBOI 230510
RWRID

IDAHO REGIONAL WEATHER ROUNDUP
NATIONAL WEATHER SERVICE BOISE ID
1100 PM MDT THU JUN 22 2017

NOTE: "FAIR" INDICATES FEW OR NO CLOUDS BELOW 12000 FEET
WITH NO SIGNIFICANT WEATHER AND/OR OBSTRUCTIONS TO VISIBILITY

IDZ012-014-230600-
SOUTHWEST IDAHO


CITY           SKY/WX    TMP DP  RH WIND       PRES   REMARKS
BOISE          CLEAR     69  33  26 NW10      30.09R
CALDWELL       CLEAR     66  37  34 NW7       30.10R
MOUNTAIN HOME  CLEAR     65  34  31 W12       30.09R
$$

IDZ016-017-230600-
SOUTHCENTRAL IDAHO


CITY           SKY/WX    TMP DP  RH WIND       PRES   REMARKS
BURLEY         CLEAR     65  28  24 W22G29    30.08R
JEROME         CLEAR     65  29  25 SW15G26   30.10R
TWIN FALLS     CLEAR     61  28  28 SW13      30.13R
$$

IDZ019>023-230600-
SOUTHEAST IDAHO


CITY           SKY/WX    TMP DP  RH WIND       PRES   REMARKS
IDAHO FALLS    CLEAR     58  42  55 N8        30.15R
POCATELLO      CLEAR     66  25  21 SW14      30.13R
REXBURG        CLEAR     58  35  42 NE8       30.17R
$$

IDZ006-010-011-018-031-032-230600-
CENTRAL IDAHO MOUNTAINS


CITY           SKY/WX    TMP DP  RH WIND       PRES   REMARKS
MCCALL         CLEAR     57  26  30 N12       30.24R
HAILEY         CLEAR     61  32  33 NW9       30.16R
STANLEY          N/A     49  27  42 S3        30.27R
SALMON         CLEAR     57  28  33 N6        30.20R
CHALLIS        CLEAR     56  22  26 N13       30.21R
$$

IDZ002-004-006-007-026-230600-
NORTHERN IDAHO


CITY           SKY/WX    TMP DP  RH WIND       PRES   REMARKS
LEWISTON       CLEAR     64  38  38 S7        30.17R
LOWELL           N/A     56  45  66 CALM      30.22R
COEUR D`ALENE  CLEAR     62  38  40 CALM      30.21R
MULLAN PASS    CLEAR     48  28  46 NW5       30.31R
$$



USA.gov is the U.S. government's official web portal to all federal, state and local government web resources and services.